Time,TemperatureF,DewpointF,PressureIn,WindDirection,WindDirectionDegrees,WindSpeedMPH,WindSpeedGustMPH,Humidity,HourlyPrecipIn,Conditions,Clouds,dailyrainin,SolarRadiationWatts/m^2,SoftwareType,DateUTC
2013-09-17 00:03:00,41.3,37.4,30.25,NW,308,0.0,2.0,86,0.00,,CLR,0.03,0.00,VWS V14.01,2013-09-17 04:03:00,
2013-09-17 00:13:00,41.1,37.8,30.25,NW,308,0.0,0.0,88,0.00,,CLR,0.00,0.00,VWS V14.01,2013-09-17 04:13:00,
2013-09-17 00:23:00,40.6,37.3,30.25,NW,308,0.0,3.0,88,0.00,,CLR,0.00,0.00,VWS V14.01,2013-09-17 04:23:00,
2013-09-17 00:33:00,40.6,37.3,30.26,NW,308,0.0,2.0,88,0.00,,CLR,0.00,0.00,VWS V14.01,2013-09-17 04:33:00,
2013-09-17 00:43:00,40.6,37.0,30.26,NW,308,0.0,0.0,87,0.00,,CLR,0.00,0.00,VWS V14.01,2013-09-17 04:43:00,
2013-09-17 00:53:00,40.2,37.2,30.26,NW,308,0.0,2.0,89,0.00,,CLR,0.00,0.00,VWS V14.01,2013-09-17 04:53:00,
2013-09-17 01:03:00,39.8,36.5,30.27,NW,308,0.0,0.0,88,0.00,,CLR,0.00,0.00,VWS V14.01,2013-09-17 05:03:00,
2013-09-17 01:13:00,39.9,36.6,30.27,NW,308,0.0,0.0,88,0.00,,CLR,0.00,0.00,VWS V14.01,2013-09-17 05:13:00,
2013-09-17 01:23:00,39.8,36.5,30.27,NW,308,0.0,0.0,88,0.00,,CLR,0.00,0.00,VWS V14.01,2013-09-17 05:23:00,
2013-09-17 01:33:00,40.3,37.3,30.28,NW,308,0.0,0.0,89,0.00,,CLR,0.00,0.00,VWS V14.01,2013-09-17 05:33:00,
2013-09-17 01:43:00,39.6,36.9,30.28,NW,308,0.0,2.0,90,0.00,,CLR,0.00,0.00,VWS V14.01,2013-09-17 05:43:00,
2013-09-17 01:53:00,39.5,36.5,30.28,NW,308,0.0,0.0,89,0.00,,CLR,0.00,0.00,VWS V14.01,2013-09-17 05:53:00,
2013-09-17 02:03:00,40.1,37.1,30.28,NW,308,0.0,0.0,89,0.00,,CLR,0.00,0.00,VWS V14.01,2013-09-17 06:03:00,
2013-09-17 02:13:00,39.9,37.2,30.28,NW,308,0.0,0.0,90,0.00,,CLR,0.00,0.00,VWS V14.01,2013-09-17 06:13:00,
2013-09-17 02:23:00,39.3,36.6,30.28,NW,308,0.0,0.0,90,0.00,,CLR,0.00,0.00,VWS V14.01,2013-09-17 06:23:00,
2013-09-17 02:33:00,39.2,36.8,30.28,NW,308,0.0,3.0,91,0.00,,CLR,0.00,0.00,VWS V14.01,2013-09-17 06:33:00,
2013-09-17 02:43:00,39.2,37.1,30.28,NW,308,0.0,3.0,92,0.00,,CLR,0.00,0.00,VWS V14.01,2013-09-17 06:43:00,
2013-09-17 02:53:00,39.5,37.1,30.28,NW,308,0.0,1.0,91,0.00,,CLR,0.00,0.00,VWS V14.01,2013-09-17 06:53:00,
2013-09-17 03:03:00,39.2,36.8,30.28,NW,308,0.0,1.0,91,0.00,,CLR,0.00,0.00,VWS V14.01,2013-09-17 07:03:00,
2013-09-17 03:13:00,39.1,36.1,30.28,NW,308,0.0,0.0,89,0.00,,CLR,0.00,0.00,VWS V14.01,2013-09-17 07:13:00,
2013-09-17 03:23:00,39.1,36.4,30.29,NW,308,0.0,2.0,90,0.00,,CLR,0.00,0.00,VWS V14.01,2013-09-17 07:23:00,
2013-09-17 03:33:00,40.1,36.0,30.29,WSW,252,2.0,5.0,85,0.00,,CLR,0.00,0.00,VWS V14.01,2013-09-17 07:33:00,
2013-09-17 03:43:00,38.8,36.4,30.29,WSW,255,0.0,3.0,91,0.00,,CLR,0.00,0.00,VWS V14.01,2013-09-17 07:43:00,
2013-09-17 03:53:00,39.1,36.7,30.30,WSW,255,0.0,0.0,91,0.00,,CLR,0.00,0.00,VWS V14.01,2013-09-17 07:53:00,
2013-09-17 04:03:00,39.1,36.7,30.30,WSW,255,0.0,0.0,91,0.00,,CLR,0.00,0.00,VWS V14.01,2013-09-17 08:03:00,
2013-09-17 04:13:00,39.2,36.8,30.30,WSW,255,0.0,0.0,91,0.00,,CLR,0.00,0.00,VWS V14.01,2013-09-17 08:13:00,
2013-09-17 04:23:00,38.6,36.2,30.30,WSW,255,0.0,0.0,91,0.00,,CLR,0.00,0.00,VWS V14.01,2013-09-17 08:23:00,
2013-09-17 04:33:00,38.9,36.8,30.30,WSW,255,0.0,1.0,92,0.00,,CLR,0.00,0.00,VWS V14.01,2013-09-17 08:33:00,
2013-09-17 04:43:00,38.9,37.0,30.30,North,0,0.0,2.0,93,0.00,,CLR,0.00,0.00,VWS V14.01,2013-09-17 08:43:00,
2013-09-17 04:53:00,39.1,36.7,30.30,North,0,0.0,0.0,91,0.00,,CLR,0.00,0.00,VWS V14.01,2013-09-17 08:53:00,
2013-09-17 05:03:00,38.9,36.2,30.30,North,0,0.0,1.0,90,0.00,,CLR,0.00,0.00,VWS V14.01,2013-09-17 09:03:00,
2013-09-17 05:13:00,39.3,36.9,30.30,North,0,0.0,0.0,91,0.00,,CLR,0.00,0.00,VWS V14.01,2013-09-17 09:13:00,
2013-09-17 05:23:00,38.9,36.5,30.32,North,0,0.0,0.0,91,0.00,,CLR,0.00,0.00,VWS V14.01,2013-09-17 09:23:00,
2013-09-17 05:33:00,38.2,36.1,30.32,North,0,0.0,0.0,92,0.00,,CLR,0.00,0.00,VWS V14.01,2013-09-17 09:33:00,
2013-09-17 05:43:00,37.8,36.0,30.32,West,271,0.0,3.0,93,0.00,,CLR,0.00,0.00,VWS V14.01,2013-09-17 09:43:00,
2013-09-17 05:53:00,38.5,36.7,30.33,West,271,0.0,0.0,93,0.00,,CLR,0.00,0.00,VWS V14.01,2013-09-17 09:53:00,
2013-09-17 06:03:00,38.0,36.2,30.33,SW,231,0.0,2.0,93,0.00,,CLR,0.00,0.00,VWS V14.01,2013-09-17 10:03:00,
2013-09-17 06:13:00,38.3,36.7,30.33,SW,220,0.0,3.0,94,0.00,,CLR,0.00,0.00,VWS V14.01,2013-09-17 10:13:00,
2013-09-17 06:23:00,38.3,36.7,30.34,SW,219,0.0,3.0,94,0.00,,CLR,0.00,0.00,VWS V14.01,2013-09-17 10:23:00,
2013-09-17 06:33:00,38.6,37.0,30.35,WSW,245,0.0,3.0,94,0.00,,CLR,0.00,0.00,VWS V14.01,2013-09-17 10:33:00,
2013-09-17 06:43:00,38.9,37.3,30.35,West,280,2.0,4.0,94,0.00,,CLR,0.00,5.00,VWS V14.01,2013-09-17 10:43:00,
2013-09-17 06:53:00,38.5,36.7,30.36,West,280,0.0,4.0,93,0.00,,CLR,0.00,7.00,VWS V14.01,2013-09-17 10:53:00,
2013-09-17 07:13:00,39.6,38.0,30.37,SW,229,0.0,3.0,94,0.00,,CLR,0.00,11.00,VWS V14.01,2013-09-17 11:13:00,
2013-09-17 07:23:00,39.5,38.2,30.37,WSW,252,0.0,4.0,95,0.00,,CLR,0.00,14.00,VWS V14.01,2013-09-17 11:23:00,
2013-09-17 07:33:00,39.8,38.5,30.37,SSW,212,0.0,3.0,95,0.00,,CLR,0.00,18.00,VWS V14.01,2013-09-17 11:33:00,
2013-09-17 07:43:00,40.2,38.9,30.37,SSW,212,0.0,0.0,95,0.00,,CLR,0.00,28.00,VWS V14.01,2013-09-17 11:43:00,
2013-09-17 07:53:00,41.1,39.2,30.38,West,271,4.0,6.0,93,0.00,,CLR,0.00,21.00,VWS V14.01,2013-09-17 11:53:00,
2013-09-17 08:03:00,42.5,37.1,30.38,NW,323,3.0,6.0,81,0.00,,CLR,0.00,23.00,VWS V14.01,2013-09-17 12:03:00,
2013-09-17 08:13:00,43.6,38.8,30.38,WSW,237,0.0,4.0,83,0.00,,CLR,0.00,30.00,VWS V14.01,2013-09-17 12:13:00,
2013-09-17 08:23:00,43.9,39.4,30.38,WSW,237,0.0,2.0,84,0.00,,CLR,0.00,33.00,VWS V14.01,2013-09-17 12:23:00,
2013-09-17 08:33:00,44.2,38.4,30.38,WSW,237,2.0,4.0,80,0.00,,CLR,0.00,28.00,VWS V14.01,2013-09-17 12:33:00,
2013-09-17 08:43:00,45.5,39.0,30.38,WSW,237,0.0,3.0,78,0.00,,CLR,0.00,28.00,VWS V14.01,2013-09-17 12:43:00,
2013-09-17 08:53:00,46.0,38.5,30.40,WSW,237,0.0,0.0,75,0.00,,CLR,0.00,30.00,VWS V14.01,2013-09-17 12:53:00,
2013-09-17 09:03:00,47.3,39.8,30.40,NNE,25,5.0,6.0,75,0.00,,CLR,0.00,32.00,VWS V14.01,2013-09-17 13:03:00,
2013-09-17 09:13:00,48.2,37.4,30.40,ENE,68,5.0,9.0,66,0.00,,CLR,0.00,33.00,VWS V14.01,2013-09-17 13:13:00,
2013-09-17 09:23:00,49.1,35.0,30.40,WNW,288,3.0,5.0,58,0.00,,CLR,0.00,35.00,VWS V14.01,2013-09-17 13:23:00,
2013-09-17 09:33:00,48.5,38.4,30.40,East,91,2.0,4.0,68,0.00,,CLR,0.00,37.00,VWS V14.01,2013-09-17 13:33:00,
2013-09-17 09:43:00,50.2,36.0,30.40,North,0,0.0,5.0,58,0.00,,CLR,0.00,40.00,VWS V14.01,2013-09-17 13:43:00,
2013-09-17 09:53:00,50.4,35.3,30.40,NNE,22,4.0,6.0,56,0.00,,CLR,0.00,44.00,VWS V14.01,2013-09-17 13:53:00,
2013-09-17 10:03:00,50.8,35.2,30.40,NE,54,0.0,9.0,55,0.00,,CLR,0.00,47.00,VWS V14.01,2013-09-17 14:03:00,
2013-09-17 10:13:00,50.5,36.3,30.40,East,84,2.0,7.0,58,0.00,,CLR,0.00,51.00,VWS V14.01,2013-09-17 14:13:00,
2013-09-17 10:23:00,51.3,37.0,30.40,East,98,0.0,4.0,58,0.00,,CLR,0.00,54.00,VWS V14.01,2013-09-17 14:23:00,
2013-09-17 10:33:00,51.7,36.5,30.40,ENE,72,4.0,7.0,56,0.00,,CLR,0.00,58.00,VWS V14.01,2013-09-17 14:33:00,
2013-09-17 10:42:00,51.6,35.5,30.40,ENE,68,0.0,5.0,54,0.00,,CLR,0.00,58.00,VWS V14.01,2013-09-17 14:42:00,
2013-09-17 10:53:00,52.5,34.9,30.40,ENE,68,0.0,2.0,51,0.00,,CLR,0.00,137.00,VWS V14.01,2013-09-17 14:53:00,
2013-09-17 11:03:00,52.8,36.6,30.39,East,93,5.0,7.0,54,0.00,,CLR,0.00,269.00,VWS V14.01,2013-09-17 15:03:00,
2013-09-17 11:13:00,54.4,37.2,30.39,ENE,58,1.0,10.0,52,0.00,,CLR,0.00,701.00,VWS V14.01,2013-09-17 15:13:00,
2013-09-17 11:23:00,55.3,39.0,30.40,NE,47,0.0,9.0,54,0.00,,CLR,0.00,719.00,VWS V14.01,2013-09-17 15:23:00,
2013-09-17 11:33:00,55.7,37.4,30.39,NE,49,5.0,7.0,50,0.00,,CLR,0.00,728.00,VWS V14.01,2013-09-17 15:33:00,
2013-09-17 11:43:00,55.6,39.7,30.39,ENE,66,0.0,6.0,55,0.00,,CLR,0.00,738.00,VWS V14.01,2013-09-17 15:43:00,
2013-09-17 11:53:00,55.9,39.0,30.39,ENE,67,4.0,6.0,53,0.00,,CLR,0.00,745.00,VWS V14.01,2013-09-17 15:53:00,
2013-09-17 12:03:00,56.6,36.6,30.38,NE,45,2.0,9.0,47,0.00,,CLR,0.00,749.00,VWS V14.01,2013-09-17 16:03:00,
2013-09-17 12:13:00,56.9,39.0,30.38,NE,34,0.0,5.0,51,0.00,,CLR,0.00,754.00,VWS V14.01,2013-09-17 16:13:00,
2013-09-17 12:23:00,57.2,37.2,30.38,NE,55,3.0,6.0,47,0.00,,CLR,0.00,761.00,VWS V14.01,2013-09-17 16:23:00,
2013-09-17 12:33:00,57.6,38.1,30.38,NE,55,0.0,4.0,48,0.00,,CLR,0.00,759.00,VWS V14.01,2013-09-17 16:33:00,
2013-09-17 12:43:00,57.6,39.6,30.38,NNW,338,0.0,3.0,51,0.00,,CLR,0.00,761.00,VWS V14.01,2013-09-17 16:43:00,
2013-09-17 12:53:00,58.1,39.6,30.37,NNW,338,0.0,0.0,50,0.00,,CLR,0.00,756.00,VWS V14.01,2013-09-17 16:53:00,
2013-09-17 13:03:00,58.1,38.5,30.36,WNW,285,0.0,4.0,48,0.00,,CLR,0.00,758.00,VWS V14.01,2013-09-17 17:03:00,
2013-09-17 13:13:00,58.4,40.9,30.36,North,8,0.0,3.0,52,0.00,,CLR,0.00,747.00,VWS V14.01,2013-09-17 17:13:00,
2013-09-17 13:23:00,59.5,39.8,30.36,West,279,1.0,5.0,48,0.00,,CLR,0.00,742.00,VWS V14.01,2013-09-17 17:23:00,
2013-09-17 13:33:00,58.9,37.0,30.35,NNE,23,0.0,3.0,44,0.00,,CLR,0.00,733.00,VWS V14.01,2013-09-17 17:33:00,
2013-09-17 13:43:00,59.2,37.9,30.35,WNW,291,2.0,3.0,45,0.00,,CLR,0.00,724.00,VWS V14.01,2013-09-17 17:43:00,
2013-09-17 13:53:00,60.4,39.5,30.34,WSW,257,2.0,6.0,46,0.00,,CLR,0.00,729.00,VWS V14.01,2013-09-17 17:53:00,
2013-09-17 14:03:00,59.2,41.6,30.34,WSW,251,2.0,6.0,52,0.00,,CLR,0.00,721.00,VWS V14.01,2013-09-17 18:03:00,
2013-09-17 14:13:00,60.5,39.1,30.34,West,264,5.0,6.0,45,0.00,,CLR,0.00,712.00,VWS V14.01,2013-09-17 18:13:00,
2013-09-17 14:23:00,61.3,39.2,30.33,North,354,0.0,5.0,44,0.00,,CLR,0.00,700.00,VWS V14.01,2013-09-17 18:23:00,
2013-09-17 14:33:00,60.4,40.1,30.33,North,354,0.0,5.0,47,0.00,,CLR,0.00,684.00,VWS V14.01,2013-09-17 18:33:00,
2013-09-17 14:43:00,61.0,41.2,30.33,West,276,1.0,2.0,48,0.00,,CLR,0.00,633.00,VWS V14.01,2013-09-17 18:43:00,
2013-09-17 14:53:00,61.5,39.4,30.32,West,266,0.0,4.0,44,0.00,,CLR,0.00,519.00,VWS V14.01,2013-09-17 18:53:00,
2013-09-17 15:03:00,61.0,43.3,30.31,WSW,245,8.0,12.0,52,0.00,,CLR,0.00,515.00,VWS V14.01,2013-09-17 19:03:00,
2013-09-17 15:13:00,62.3,41.8,30.31,West,269,7.0,9.0,47,0.00,,CLR,0.00,483.00,VWS V14.01,2013-09-17 19:13:00,
2013-09-17 15:23:00,62.3,39.5,30.31,WSW,248,0.0,11.0,43,0.00,,CLR,0.00,536.00,VWS V14.01,2013-09-17 19:23:00,
2013-09-17 15:33:00,62.0,43.2,30.31,West,264,5.0,6.0,50,0.00,,CLR,0.00,559.00,VWS V14.01,2013-09-17 19:33:00,
2013-09-17 15:43:00,61.6,43.8,30.31,WSW,238,3.0,7.0,52,0.00,,CLR,0.00,526.00,VWS V14.01,2013-09-17 19:43:00,
2013-09-17 15:53:00,62.1,43.3,30.30,WNW,300,1.0,10.0,50,0.00,,CLR,0.00,448.00,VWS V14.01,2013-09-17 19:53:00,
2013-09-17 16:03:00,62.7,43.3,30.30,WSW,248,6.0,8.0,49,0.00,,CLR,0.00,385.00,VWS V14.01,2013-09-17 20:03:00,
2013-09-17 16:13:00,62.4,40.8,30.30,West,263,6.0,9.0,45,0.00,,CLR,0.00,348.00,VWS V14.01,2013-09-17 20:13:00,
2013-09-17 16:23:00,62.6,42.7,30.30,West,271,9.0,10.0,48,0.00,,CLR,0.00,221.00,VWS V14.01,2013-09-17 20:23:00,
2013-09-17 16:33:00,62.0,44.2,30.30,West,263,4.0,11.0,52,0.00,,CLR,0.00,397.00,VWS V14.01,2013-09-17 20:33:00,
2013-09-17 16:43:00,62.3,42.9,30.30,WSW,253,10.0,11.0,49,0.00,,CLR,0.00,367.00,VWS V14.01,2013-09-17 20:43:00,
2013-09-17 16:53:00,62.3,40.7,30.29,West,271,4.0,10.0,45,0.00,,CLR,0.00,216.00,VWS V14.01,2013-09-17 20:53:00,
2013-09-17 17:03:00,59.6,44.4,30.29,WSW,258,6.0,12.0,57,0.00,,CLR,0.00,83.00,VWS V14.01,2013-09-17 21:03:00,
2013-09-17 17:13:00,60.4,43.2,30.29,West,281,6.0,11.0,53,0.00,,CLR,0.00,251.00,VWS V14.01,2013-09-17 21:13:00,
2013-09-17 17:23:00,59.5,44.3,30.29,West,271,5.0,7.0,57,0.00,,CLR,0.00,216.00,VWS V14.01,2013-09-17 21:23:00,
2013-09-17 17:33:00,59.6,45.3,30.29,West,274,6.0,10.0,59,0.00,,CLR,0.00,167.00,VWS V14.01,2013-09-17 21:33:00,
2013-09-17 17:43:00,60.2,43.0,30.29,West,269,8.0,10.0,53,0.00,,CLR,0.00,156.00,VWS V14.01,2013-09-17 21:43:00,
2013-09-17 17:53:00,57.8,46.1,30.29,WNW,288,5.0,10.0,65,0.00,,CLR,0.00,118.00,VWS V14.01,2013-09-17 21:53:00,
2013-09-17 18:03:00,58.7,47.0,30.29,West,259,6.0,12.0,65,0.00,,CLR,0.00,107.00,VWS V14.01,2013-09-17 22:03:00,
2013-09-17 18:23:00,56.6,45.8,30.28,West,275,5.0,7.0,67,0.00,,CLR,0.00,21.00,VWS V14.01,2013-09-17 22:23:00,
2013-09-17 18:33:00,55.7,47.2,30.29,West,271,4.0,7.0,73,0.00,,CLR,0.00,12.00,VWS V14.01,2013-09-17 22:33:00,
2013-09-17 18:43:00,55.0,46.9,30.29,West,271,2.0,5.0,74,0.00,,CLR,0.00,5.00,VWS V14.01,2013-09-17 22:43:00,
2013-09-17 18:53:00,54.5,48.5,30.29,West,272,0.0,2.0,80,0.00,,CLR,0.00,0.00,VWS V14.01,2013-09-17 22:53:00,
2013-09-17 19:03:00,53.8,46.4,30.28,West,272,0.0,0.0,76,0.00,,CLR,0.00,0.00,VWS V14.01,2013-09-17 23:03:00,
2013-09-17 19:13:00,53.3,47.3,30.28,West,272,0.0,1.0,80,0.00,,CLR,0.00,0.00,VWS V14.01,2013-09-17 23:13:00,
2013-09-17 19:23:00,52.8,47.1,30.28,West,271,0.0,0.0,81,0.00,,CLR,0.00,0.00,VWS V14.01,2013-09-17 23:23:00,
2013-09-17 19:33:00,52.0,47.3,30.29,West,272,0.0,0.0,84,0.00,,CLR,0.00,0.00,VWS V14.01,2013-09-17 23:33:00,
2013-09-17 19:43:00,51.9,47.5,30.29,West,272,0.0,0.0,85,0.00,,CLR,0.00,0.00,VWS V14.01,2013-09-17 23:43:00,
2013-09-17 19:53:00,51.3,47.3,30.29,West,272,0.0,3.0,86,0.00,,CLR,0.00,0.00,VWS V14.01,2013-09-17 23:53:00,
2013-09-17 20:03:00,51.1,46.8,30.30,West,271,0.0,2.0,85,0.00,,CLR,0.00,0.00,VWS V14.01,2013-09-18 00:03:00,
2013-09-17 20:13:00,50.7,46.7,30.30,West,271,0.0,0.0,86,0.00,,CLR,0.00,0.00,VWS V14.01,2013-09-18 00:13:00,
2013-09-17 20:23:00,50.5,46.5,30.30,West,271,0.0,1.0,86,0.00,,CLR,0.00,0.00,VWS V14.01,2013-09-18 00:23:00,
2013-09-17 20:33:00,49.8,46.4,30.30,West,271,0.0,3.0,88,0.00,,CLR,0.00,0.00,VWS V14.01,2013-09-18 00:33:00,
2013-09-17 20:43:00,49.6,45.9,30.30,West,271,0.0,3.0,87,0.00,,CLR,0.00,0.00,VWS V14.01,2013-09-18 00:43:00,
2013-09-17 20:53:00,49.1,45.7,30.30,West,271,0.0,3.0,88,0.00,,CLR,0.00,0.00,VWS V14.01,2013-09-18 00:53:00,
2013-09-17 21:03:00,49.5,45.8,30.30,West,271,0.0,3.0,87,0.00,,CLR,0.00,0.00,VWS V14.01,2013-09-18 01:03:00,
2013-09-17 21:13:00,48.9,44.9,30.30,West,271,0.0,2.0,86,0.00,,CLR,0.00,0.00,VWS V14.01,2013-09-18 01:13:00,
2013-09-17 21:23:00,48.8,45.4,30.30,West,271,0.0,1.0,88,0.00,,CLR,0.00,0.00,VWS V14.01,2013-09-18 01:23:00,
2013-09-17 21:43:00,48.6,45.8,30.30,West,271,3.0,3.0,90,0.00,,CLR,0.00,0.00,VWS V14.01,2013-09-18 01:43:00,
2013-09-17 22:03:00,48.5,46.0,30.30,West,271,0.0,3.0,91,0.00,,CLR,0.00,0.00,VWS V14.01,2013-09-18 02:03:00,
2013-09-17 22:13:00,47.9,45.7,30.30,West,271,0.0,0.0,92,0.00,,CLR,0.00,0.00,VWS V14.01,2013-09-18 02:13:00,
2013-09-17 22:23:00,48.5,46.0,30.30,West,271,2.0,4.0,91,0.00,,CLR,0.00,0.00,VWS V14.01,2013-09-18 02:23:00,
2013-09-17 22:33:00,48.2,46.0,30.30,West,271,0.0,4.0,92,0.00,,CLR,0.00,0.00,VWS V14.01,2013-09-18 02:33:00,
2013-09-17 22:43:00,47.7,45.8,30.30,West,271,0.0,2.0,93,0.00,,CLR,0.00,0.00,VWS V14.01,2013-09-18 02:43:00,
2013-09-17 22:53:00,47.9,45.7,30.29,West,271,0.0,4.0,92,0.00,,CLR,0.00,0.00,VWS V14.01,2013-09-18 02:53:00,
2013-09-17 23:03:00,47.4,45.2,30.29,West,271,0.0,0.0,92,0.00,,CLR,0.00,0.00,VWS V14.01,2013-09-18 03:03:00,
2013-09-17 23:13:00,47.6,45.7,30.29,West,271,1.0,3.0,93,0.00,,CLR,0.00,0.00,VWS V14.01,2013-09-18 03:13:00,
2013-09-17 23:23:00,47.6,46.0,30.29,West,271,0.0,1.0,94,0.00,,CLR,0.00,0.00,VWS V14.01,2013-09-18 03:23:00,
2013-09-17 23:33:00,47.3,45.9,30.29,West,271,0.0,3.0,95,0.00,,CLR,0.00,0.00,VWS V14.01,2013-09-18 03:33:00,
2013-09-17 23:43:00,47.0,46.2,30.29,West,271,0.0,3.0,97,0.00,,CLR,0.00,0.00,VWS V14.01,2013-09-18 03:43:00,
2013-09-17 23:53:00,46.5,46.0,30.29,West,271,0.0,4.0,98,0.00,,CLR,0.00,0.00,VWS V14.01,2013-09-18 03:53:00,